Index of /20260504/WXO-DD/model_caps/3km/12/014
Name Last modified Size Description
Parent Directory -
20260504T12Z_MSC_CAPS_AbsoluteVorticity_IsbL-0250_RLatLon0.03_PT014H.grib2 2026-05-04 18:14 1.1M
20260504T12Z_MSC_CAPS_AbsoluteVorticity_IsbL-0500_RLatLon0.03_PT014H.grib2 2026-05-04 18:14 1.1M
20260504T12Z_MSC_CAPS_AbsoluteVorticity_IsbL-0700_RLatLon0.03_PT014H.grib2 2026-05-04 18:14 1.1M
20260504T12Z_MSC_CAPS_AbsoluteVorticity_IsbL-0850_RLatLon0.03_PT014H.grib2 2026-05-04 18:14 1.2M
20260504T12Z_MSC_CAPS_AbsoluteVorticity_IsbL-1000_RLatLon0.03_PT014H.grib2 2026-05-04 18:14 1.3M
20260504T12Z_MSC_CAPS_AirDensity_AGL-120m_RLatLon0.03_PT014H.grib2 2026-05-04 18:14 1.4M
20260504T12Z_MSC_CAPS_AirDensity_AGL-40m_RLatLon0.03_PT014H.grib2 2026-05-04 18:14 1.4M
20260504T12Z_MSC_CAPS_AirDensity_AGL-80m_RLatLon0.03_PT014H.grib2 2026-05-04 18:14 1.4M
20260504T12Z_MSC_CAPS_AirTemp_AGL-120m_RLatLon0.03_PT014H.grib2 2026-05-04 18:14 1.4M
20260504T12Z_MSC_CAPS_AirTemp_AGL-2m_RLatLon0.03_PT014H.grib2 2026-05-04 18:14 1.8M
20260504T12Z_MSC_CAPS_AirTemp_AGL-40m_RLatLon0.03_PT014H.grib2 2026-05-04 18:14 1.5M
20260504T12Z_MSC_CAPS_AirTemp_AGL-80m_RLatLon0.03_PT014H.grib2 2026-05-04 18:14 1.4M
20260504T12Z_MSC_CAPS_AirTemp_IsbL-0050_RLatLon0.03_PT014H.grib2 2026-05-04 18:14 690K
20260504T12Z_MSC_CAPS_AirTemp_IsbL-0100_RLatLon0.03_PT014H.grib2 2026-05-04 18:14 964K
20260504T12Z_MSC_CAPS_AirTemp_IsbL-0150_RLatLon0.03_PT014H.grib2 2026-05-04 18:14 748K
20260504T12Z_MSC_CAPS_AirTemp_IsbL-0175_RLatLon0.03_PT014H.grib2 2026-05-04 18:14 769K
20260504T12Z_MSC_CAPS_AirTemp_IsbL-0200_RLatLon0.03_PT014H.grib2 2026-05-04 18:14 790K
20260504T12Z_MSC_CAPS_AirTemp_IsbL-0225_RLatLon0.03_PT014H.grib2 2026-05-04 18:14 793K
20260504T12Z_MSC_CAPS_AirTemp_IsbL-0250_RLatLon0.03_PT014H.grib2 2026-05-04 18:14 784K
20260504T12Z_MSC_CAPS_AirTemp_IsbL-0275_RLatLon0.03_PT014H.grib2 2026-05-04 18:14 1.0M
20260504T12Z_MSC_CAPS_AirTemp_IsbL-0300_RLatLon0.03_PT014H.grib2 2026-05-04 18:14 1.0M
20260504T12Z_MSC_CAPS_AirTemp_IsbL-0350_RLatLon0.03_PT014H.grib2 2026-05-04 18:14 751K
20260504T12Z_MSC_CAPS_AirTemp_IsbL-0400_RLatLon0.03_PT014H.grib2 2026-05-04 18:14 760K
20260504T12Z_MSC_CAPS_AirTemp_IsbL-0450_RLatLon0.03_PT014H.grib2 2026-05-04 18:14 772K
20260504T12Z_MSC_CAPS_AirTemp_IsbL-0500_RLatLon0.03_PT014H.grib2 2026-05-04 18:14 786K
20260504T12Z_MSC_CAPS_AirTemp_IsbL-0550_RLatLon0.03_PT014H.grib2 2026-05-04 18:14 957K
20260504T12Z_MSC_CAPS_AirTemp_IsbL-0600_RLatLon0.03_PT014H.grib2 2026-05-04 18:14 1.0M
20260504T12Z_MSC_CAPS_AirTemp_IsbL-0650_RLatLon0.03_PT014H.grib2 2026-05-04 18:14 1.0M
20260504T12Z_MSC_CAPS_AirTemp_IsbL-0700_RLatLon0.03_PT014H.grib2 2026-05-04 18:14 931K
20260504T12Z_MSC_CAPS_AirTemp_IsbL-0750_RLatLon0.03_PT014H.grib2 2026-05-04 18:14 963K
20260504T12Z_MSC_CAPS_AirTemp_IsbL-0800_RLatLon0.03_PT014H.grib2 2026-05-04 18:14 1.0M
20260504T12Z_MSC_CAPS_AirTemp_IsbL-0850_RLatLon0.03_PT014H.grib2 2026-05-04 18:14 1.0M
20260504T12Z_MSC_CAPS_AirTemp_IsbL-0875_RLatLon0.03_PT014H.grib2 2026-05-04 18:14 1.0M
20260504T12Z_MSC_CAPS_AirTemp_IsbL-0900_RLatLon0.03_PT014H.grib2 2026-05-04 18:14 1.0M
20260504T12Z_MSC_CAPS_AirTemp_IsbL-0925_RLatLon0.03_PT014H.grib2 2026-05-04 18:14 1.0M
20260504T12Z_MSC_CAPS_AirTemp_IsbL-0950_RLatLon0.03_PT014H.grib2 2026-05-04 18:14 1.0M
20260504T12Z_MSC_CAPS_AirTemp_IsbL-0970_RLatLon0.03_PT014H.grib2 2026-05-04 18:14 1.0M
20260504T12Z_MSC_CAPS_AirTemp_IsbL-0985_RLatLon0.03_PT014H.grib2 2026-05-04 18:14 1.0M
20260504T12Z_MSC_CAPS_AirTemp_IsbL-1000_RLatLon0.03_PT014H.grib2 2026-05-04 18:14 1.0M
20260504T12Z_MSC_CAPS_AirTemp_IsbL-1015_RLatLon0.03_PT014H.grib2 2026-05-04 18:14 1.1M
20260504T12Z_MSC_CAPS_Albedo_Sfc_RLatLon0.03_PT014H.grib2 2026-05-04 18:14 2.7M
20260504T12Z_MSC_CAPS_CAPE_Sfc_RLatLon0.03_PT014H.grib2 2026-05-04 18:14 166K
20260504T12Z_MSC_CAPS_CloudWater_EAtm_RLatLon0.03_PT014H.grib2 2026-05-04 18:14 1.5M
20260504T12Z_MSC_CAPS_ConvectivePrecip-Accum_Sfc_RLatLon0.03_PT014H.grib2 2026-05-04 18:14 3.0M
20260504T12Z_MSC_CAPS_DewPointDepression_AGL-120m_RLatLon0.03_PT014H.grib2 2026-05-04 18:14 2.1M
20260504T12Z_MSC_CAPS_DewPointDepression_AGL-2m_RLatLon0.03_PT014H.grib2 2026-05-04 18:14 2.2M
20260504T12Z_MSC_CAPS_DewPointDepression_AGL-40m_RLatLon0.03_PT014H.grib2 2026-05-04 18:14 2.1M
20260504T12Z_MSC_CAPS_DewPointDepression_AGL-80m_RLatLon0.03_PT014H.grib2 2026-05-04 18:14 2.1M
20260504T12Z_MSC_CAPS_DewPointDepression_IsbL-0050_RLatLon0.03_PT014H.grib2 2026-05-04 18:14 5.6K
20260504T12Z_MSC_CAPS_DewPointDepression_IsbL-0100_RLatLon0.03_PT014H.grib2 2026-05-04 18:14 75K
20260504T12Z_MSC_CAPS_DewPointDepression_IsbL-0150_RLatLon0.03_PT014H.grib2 2026-05-04 18:14 78K
20260504T12Z_MSC_CAPS_DewPointDepression_IsbL-0175_RLatLon0.03_PT014H.grib2 2026-05-04 18:14 199K
20260504T12Z_MSC_CAPS_DewPointDepression_IsbL-0200_RLatLon0.03_PT014H.grib2 2026-05-04 18:14 369K
20260504T12Z_MSC_CAPS_DewPointDepression_IsbL-0225_RLatLon0.03_PT014H.grib2 2026-05-04 18:14 629K
20260504T12Z_MSC_CAPS_DewPointDepression_IsbL-0250_RLatLon0.03_PT014H.grib2 2026-05-04 18:14 840K
20260504T12Z_MSC_CAPS_DewPointDepression_IsbL-0275_RLatLon0.03_PT014H.grib2 2026-05-04 18:14 1.0M
20260504T12Z_MSC_CAPS_DewPointDepression_IsbL-0300_RLatLon0.03_PT014H.grib2 2026-05-04 18:14 1.0M
20260504T12Z_MSC_CAPS_DewPointDepression_IsbL-0350_RLatLon0.03_PT014H.grib2 2026-05-04 18:14 1.1M
20260504T12Z_MSC_CAPS_DewPointDepression_IsbL-0400_RLatLon0.03_PT014H.grib2 2026-05-04 18:14 1.1M
20260504T12Z_MSC_CAPS_DewPointDepression_IsbL-0450_RLatLon0.03_PT014H.grib2 2026-05-04 18:14 1.1M
20260504T12Z_MSC_CAPS_DewPointDepression_IsbL-0500_RLatLon0.03_PT014H.grib2 2026-05-04 18:14 1.2M
20260504T12Z_MSC_CAPS_DewPointDepression_IsbL-0550_RLatLon0.03_PT014H.grib2 2026-05-04 18:14 1.2M
20260504T12Z_MSC_CAPS_DewPointDepression_IsbL-0600_RLatLon0.03_PT014H.grib2 2026-05-04 18:14 1.2M
20260504T12Z_MSC_CAPS_DewPointDepression_IsbL-0650_RLatLon0.03_PT014H.grib2 2026-05-04 18:14 1.3M
20260504T12Z_MSC_CAPS_DewPointDepression_IsbL-0700_RLatLon0.03_PT014H.grib2 2026-05-04 18:14 1.3M
20260504T12Z_MSC_CAPS_DewPointDepression_IsbL-0750_RLatLon0.03_PT014H.grib2 2026-05-04 18:14 1.3M
20260504T12Z_MSC_CAPS_DewPointDepression_IsbL-0800_RLatLon0.03_PT014H.grib2 2026-05-04 18:14 1.3M
20260504T12Z_MSC_CAPS_DewPointDepression_IsbL-0850_RLatLon0.03_PT014H.grib2 2026-05-04 18:14 1.3M
20260504T12Z_MSC_CAPS_DewPointDepression_IsbL-0875_RLatLon0.03_PT014H.grib2 2026-05-04 18:14 1.3M
20260504T12Z_MSC_CAPS_DewPointDepression_IsbL-0900_RLatLon0.03_PT014H.grib2 2026-05-04 18:14 1.3M
20260504T12Z_MSC_CAPS_DewPointDepression_IsbL-0925_RLatLon0.03_PT014H.grib2 2026-05-04 18:14 1.3M
20260504T12Z_MSC_CAPS_DewPointDepression_IsbL-0950_RLatLon0.03_PT014H.grib2 2026-05-04 18:14 1.4M
20260504T12Z_MSC_CAPS_DewPointDepression_IsbL-0970_RLatLon0.03_PT014H.grib2 2026-05-04 18:14 1.3M
20260504T12Z_MSC_CAPS_DewPointDepression_IsbL-0985_RLatLon0.03_PT014H.grib2 2026-05-04 18:14 1.4M
20260504T12Z_MSC_CAPS_DewPointDepression_IsbL-1000_RLatLon0.03_PT014H.grib2 2026-05-04 18:14 1.3M
20260504T12Z_MSC_CAPS_DewPointDepression_IsbL-1015_RLatLon0.03_PT014H.grib2 2026-05-04 18:14 1.3M
20260504T12Z_MSC_CAPS_DewPoint_AGL-120m_RLatLon0.03_PT014H.grib2 2026-05-04 18:14 3.5M
20260504T12Z_MSC_CAPS_DewPoint_AGL-2m_RLatLon0.03_PT014H.grib2 2026-05-04 18:14 1.8M
20260504T12Z_MSC_CAPS_DewPoint_AGL-40m_RLatLon0.03_PT014H.grib2 2026-05-04 18:14 3.5M
20260504T12Z_MSC_CAPS_DewPoint_AGL-80m_RLatLon0.03_PT014H.grib2 2026-05-04 18:14 3.5M
20260504T12Z_MSC_CAPS_DownwardLongwaveRadiationFlux-Accum_Sfc_RLatLon0.03_PT014H.grib2 2026-05-04 18:14 2.4M
20260504T12Z_MSC_CAPS_DownwardShortwaveRadiationFlux-Accum_NTAtm_RLatLon0.03_PT014H.grib2 2026-05-04 18:14 466K
20260504T12Z_MSC_CAPS_DownwardShortwaveRadiationFlux-Accum_Sfc_RLatLon0.03_PT014H.grib2 2026-05-04 18:14 2.8M
20260504T12Z_MSC_CAPS_FreezingRain-Accum_Sfc_RLatLon0.03_PT014H.grib2 2026-05-04 18:14 349K
20260504T12Z_MSC_CAPS_GeopotentialHeight_IsbL-0050_RLatLon0.03_PT014H.grib2 2026-05-04 18:14 639K
20260504T12Z_MSC_CAPS_GeopotentialHeight_IsbL-0100_RLatLon0.03_PT014H.grib2 2026-05-04 18:14 764K
20260504T12Z_MSC_CAPS_GeopotentialHeight_IsbL-0150_RLatLon0.03_PT014H.grib2 2026-05-04 18:14 618K
20260504T12Z_MSC_CAPS_GeopotentialHeight_IsbL-0175_RLatLon0.03_PT014H.grib2 2026-05-04 18:14 736K
20260504T12Z_MSC_CAPS_GeopotentialHeight_IsbL-0200_RLatLon0.03_PT014H.grib2 2026-05-04 18:14 750K
20260504T12Z_MSC_CAPS_GeopotentialHeight_IsbL-0225_RLatLon0.03_PT014H.grib2 2026-05-04 18:14 763K
20260504T12Z_MSC_CAPS_GeopotentialHeight_IsbL-0250_RLatLon0.03_PT014H.grib2 2026-05-04 18:14 770K
20260504T12Z_MSC_CAPS_GeopotentialHeight_IsbL-0275_RLatLon0.03_PT014H.grib2 2026-05-04 18:14 782K
20260504T12Z_MSC_CAPS_GeopotentialHeight_IsbL-0300_RLatLon0.03_PT014H.grib2 2026-05-04 18:14 788K
20260504T12Z_MSC_CAPS_GeopotentialHeight_IsbL-0350_RLatLon0.03_PT014H.grib2 2026-05-04 18:14 790K
20260504T12Z_MSC_CAPS_GeopotentialHeight_IsbL-0400_RLatLon0.03_PT014H.grib2 2026-05-04 18:14 783K
20260504T12Z_MSC_CAPS_GeopotentialHeight_IsbL-0450_RLatLon0.03_PT014H.grib2 2026-05-04 18:14 775K
20260504T12Z_MSC_CAPS_GeopotentialHeight_IsbL-0500_RLatLon0.03_PT014H.grib2 2026-05-04 18:14 767K
20260504T12Z_MSC_CAPS_GeopotentialHeight_IsbL-0550_RLatLon0.03_PT014H.grib2 2026-05-04 18:14 646K
20260504T12Z_MSC_CAPS_GeopotentialHeight_IsbL-0600_RLatLon0.03_PT014H.grib2 2026-05-04 18:14 806K
20260504T12Z_MSC_CAPS_GeopotentialHeight_IsbL-0650_RLatLon0.03_PT014H.grib2 2026-05-04 18:14 813K
20260504T12Z_MSC_CAPS_GeopotentialHeight_IsbL-0700_RLatLon0.03_PT014H.grib2 2026-05-04 18:14 889K
20260504T12Z_MSC_CAPS_GeopotentialHeight_IsbL-0750_RLatLon0.03_PT014H.grib2 2026-05-04 18:14 891K
20260504T12Z_MSC_CAPS_GeopotentialHeight_IsbL-0800_RLatLon0.03_PT014H.grib2 2026-05-04 18:14 897K
20260504T12Z_MSC_CAPS_GeopotentialHeight_IsbL-0850_RLatLon0.03_PT014H.grib2 2026-05-04 18:14 831K
20260504T12Z_MSC_CAPS_GeopotentialHeight_IsbL-0875_RLatLon0.03_PT014H.grib2 2026-05-04 18:14 837K
20260504T12Z_MSC_CAPS_GeopotentialHeight_IsbL-0900_RLatLon0.03_PT014H.grib2 2026-05-04 18:14 841K
20260504T12Z_MSC_CAPS_GeopotentialHeight_IsbL-0925_RLatLon0.03_PT014H.grib2 2026-05-04 18:14 853K
20260504T12Z_MSC_CAPS_GeopotentialHeight_IsbL-0950_RLatLon0.03_PT014H.grib2 2026-05-04 18:14 671K
20260504T12Z_MSC_CAPS_GeopotentialHeight_IsbL-0970_RLatLon0.03_PT014H.grib2 2026-05-04 18:14 676K
20260504T12Z_MSC_CAPS_GeopotentialHeight_IsbL-0985_RLatLon0.03_PT014H.grib2 2026-05-04 18:14 683K
20260504T12Z_MSC_CAPS_GeopotentialHeight_IsbL-1000_RLatLon0.03_PT014H.grib2 2026-05-04 18:14 687K
20260504T12Z_MSC_CAPS_GeopotentialHeight_IsbL-1015_RLatLon0.03_PT014H.grib2 2026-05-04 18:14 695K
20260504T12Z_MSC_CAPS_GeopotentialHeight_Sfc_RLatLon0.03_PT014H.grib2 2026-05-04 18:14 1.0M
20260504T12Z_MSC_CAPS_IcePellets-Accum_Sfc_RLatLon0.03_PT014H.grib2 2026-05-04 18:14 25K
20260504T12Z_MSC_CAPS_LatentHeatNetFlux_Sfc_RLatLon0.03_PT014H.grib2 2026-05-04 18:14 2.3M
20260504T12Z_MSC_CAPS_LiftedIndex-MU-VT_IsbL-0500_RLatLon0.03_PT014H.grib2 2026-05-04 18:14 3.3M
20260504T12Z_MSC_CAPS_MixedLayerThickness_Sfc_RLatLon0.03_PT014H.nc 2026-05-04 18:14 16M
20260504T12Z_MSC_CAPS_NetLongwaveRadiationFlux-Accum_Sfc_RLatLon0.03_PT014H.grib2 2026-05-04 18:14 2.7M
20260504T12Z_MSC_CAPS_NetShortwaveRadiationFlux-Accum_Sfc_RLatLon0.03_PT014H.grib2 2026-05-04 18:14 2.8M
20260504T12Z_MSC_CAPS_PlanetaryBoundaryLayerHeight_Sfc_RLatLon0.03_PT014H.grib2 2026-05-04 18:14 3.0M
20260504T12Z_MSC_CAPS_Precip-Accum_Sfc_RLatLon0.03_PT014H.grib2 2026-05-04 18:14 3.7M
20260504T12Z_MSC_CAPS_PrecipRate_Sfc_RLatLon0.03_PT014H.grib2 2026-05-04 18:14 594K
20260504T12Z_MSC_CAPS_PrecipType-Instant_Sfc_RLatLon0.03_PT014H.grib2 2026-05-04 18:14 1.7M
20260504T12Z_MSC_CAPS_Pressure_MSL_RLatLon0.03_PT014H.grib2 2026-05-04 18:14 921K
20260504T12Z_MSC_CAPS_Pressure_Sfc_RLatLon0.03_PT014H.grib2 2026-05-04 18:14 1.2M
20260504T12Z_MSC_CAPS_RadiativeTemp_Sfc_RLatLon0.03_PT014H.grib2 2026-05-04 18:14 2.1M
20260504T12Z_MSC_CAPS_Rain-Accum_Sfc_RLatLon0.03_PT014H.grib2 2026-05-04 18:14 1.9M
20260504T12Z_MSC_CAPS_RelativeHumidity_AGL-120m_RLatLon0.03_PT014H.grib2 2026-05-04 18:14 2.8M
20260504T12Z_MSC_CAPS_RelativeHumidity_AGL-2m_RLatLon0.03_PT014H.grib2 2026-05-04 18:14 3.0M
20260504T12Z_MSC_CAPS_RelativeHumidity_AGL-40m_RLatLon0.03_PT014H.grib2 2026-05-04 18:14 2.9M
20260504T12Z_MSC_CAPS_RelativeHumidity_AGL-80m_RLatLon0.03_PT014H.grib2 2026-05-04 18:14 2.8M
20260504T12Z_MSC_CAPS_RelativeHumidity_IsbL-0050_RLatLon0.03_PT014H.grib2 2026-05-04 18:14 967K
20260504T12Z_MSC_CAPS_RelativeHumidity_IsbL-0100_RLatLon0.03_PT014H.grib2 2026-05-04 18:14 866K
20260504T12Z_MSC_CAPS_RelativeHumidity_IsbL-0150_RLatLon0.03_PT014H.grib2 2026-05-04 18:14 604K
20260504T12Z_MSC_CAPS_RelativeHumidity_IsbL-0175_RLatLon0.03_PT014H.grib2 2026-05-04 18:14 627K
20260504T12Z_MSC_CAPS_RelativeHumidity_IsbL-0200_RLatLon0.03_PT014H.grib2 2026-05-04 18:14 642K
20260504T12Z_MSC_CAPS_RelativeHumidity_IsbL-0225_RLatLon0.03_PT014H.grib2 2026-05-04 18:14 863K
20260504T12Z_MSC_CAPS_RelativeHumidity_IsbL-0250_RLatLon0.03_PT014H.grib2 2026-05-04 18:14 1.1M
20260504T12Z_MSC_CAPS_RelativeHumidity_IsbL-0275_RLatLon0.03_PT014H.grib2 2026-05-04 18:14 1.4M
20260504T12Z_MSC_CAPS_RelativeHumidity_IsbL-0300_RLatLon0.03_PT014H.grib2 2026-05-04 18:14 1.7M
20260504T12Z_MSC_CAPS_RelativeHumidity_IsbL-0350_RLatLon0.03_PT014H.grib2 2026-05-04 18:14 1.9M
20260504T12Z_MSC_CAPS_RelativeHumidity_IsbL-0400_RLatLon0.03_PT014H.grib2 2026-05-04 18:14 2.1M
20260504T12Z_MSC_CAPS_RelativeHumidity_IsbL-0450_RLatLon0.03_PT014H.grib2 2026-05-04 18:14 2.0M
20260504T12Z_MSC_CAPS_RelativeHumidity_IsbL-0500_RLatLon0.03_PT014H.grib2 2026-05-04 18:14 2.1M
20260504T12Z_MSC_CAPS_RelativeHumidity_IsbL-0550_RLatLon0.03_PT014H.grib2 2026-05-04 18:14 2.1M
20260504T12Z_MSC_CAPS_RelativeHumidity_IsbL-0600_RLatLon0.03_PT014H.grib2 2026-05-04 18:14 2.1M
20260504T12Z_MSC_CAPS_RelativeHumidity_IsbL-0650_RLatLon0.03_PT014H.grib2 2026-05-04 18:14 2.3M
20260504T12Z_MSC_CAPS_RelativeHumidity_IsbL-0700_RLatLon0.03_PT014H.grib2 2026-05-04 18:14 2.3M
20260504T12Z_MSC_CAPS_RelativeHumidity_IsbL-0750_RLatLon0.03_PT014H.grib2 2026-05-04 18:14 2.3M
20260504T12Z_MSC_CAPS_RelativeHumidity_IsbL-0800_RLatLon0.03_PT014H.grib2 2026-05-04 18:14 2.5M
20260504T12Z_MSC_CAPS_RelativeHumidity_IsbL-0850_RLatLon0.03_PT014H.grib2 2026-05-04 18:14 2.6M
20260504T12Z_MSC_CAPS_RelativeHumidity_IsbL-0875_RLatLon0.03_PT014H.grib2 2026-05-04 18:14 2.6M
20260504T12Z_MSC_CAPS_RelativeHumidity_IsbL-0900_RLatLon0.03_PT014H.grib2 2026-05-04 18:14 2.6M
20260504T12Z_MSC_CAPS_RelativeHumidity_IsbL-0925_RLatLon0.03_PT014H.grib2 2026-05-04 18:14 2.7M
20260504T12Z_MSC_CAPS_RelativeHumidity_IsbL-0950_RLatLon0.03_PT014H.grib2 2026-05-04 18:14 2.7M
20260504T12Z_MSC_CAPS_RelativeHumidity_IsbL-0970_RLatLon0.03_PT014H.grib2 2026-05-04 18:14 2.8M
20260504T12Z_MSC_CAPS_RelativeHumidity_IsbL-0985_RLatLon0.03_PT014H.grib2 2026-05-04 18:14 2.8M
20260504T12Z_MSC_CAPS_RelativeHumidity_IsbL-1000_RLatLon0.03_PT014H.grib2 2026-05-04 18:14 2.9M
20260504T12Z_MSC_CAPS_RelativeHumidity_IsbL-1015_RLatLon0.03_PT014H.grib2 2026-05-04 18:14 2.9M
20260504T12Z_MSC_CAPS_Runoff-Accum_Sfc_RLatLon0.03_PT014H.grib2 2026-05-04 18:14 319K
20260504T12Z_MSC_CAPS_SeaIceAreaFraction_Sfc_RLatLon0.03_PT014H.nc 2026-05-04 18:14 15M
20260504T12Z_MSC_CAPS_SeaIceCompressiveStrength_Sfc_RLatLon0.03_PT014H.nc 2026-05-04 18:14 15M
20260504T12Z_MSC_CAPS_SeaIceDivergence_Sfc_RLatLon0.03_PT014H.nc 2026-05-04 18:14 15M
20260504T12Z_MSC_CAPS_SeaIceInternalPressure_Sfc_RLatLon0.03_PT014H.nc 2026-05-04 18:14 15M
20260504T12Z_MSC_CAPS_SeaIceShear_Sfc_RLatLon0.03_PT014H.nc 2026-05-04 18:14 14M
20260504T12Z_MSC_CAPS_SeaIceSnowTemp_Sfc_RLatLon0.03_PT014H.nc 2026-05-04 18:14 14M
20260504T12Z_MSC_CAPS_SeaIceSnowVolume_Sfc_RLatLon0.03_PT014H.nc 2026-05-04 18:14 15M
20260504T12Z_MSC_CAPS_SeaIceVelocityX_Sfc_RLatLon0.03_PT014H.nc 2026-05-04 18:14 15M
20260504T12Z_MSC_CAPS_SeaIceVelocityY_Sfc_RLatLon0.03_PT014H.nc 2026-05-04 18:14 15M
20260504T12Z_MSC_CAPS_SeaIceVolume_Sfc_RLatLon0.03_PT014H.nc 2026-05-04 18:14 15M
20260504T12Z_MSC_CAPS_SeaSurfaceHeight_Sfc_RLatLon0.03_PT014H.nc 2026-05-04 18:14 16M
20260504T12Z_MSC_CAPS_SeaWaterSalinity_DBS-0.5m_RLatLon0.03_PT014H.nc 2026-05-04 18:14 16M
20260504T12Z_MSC_CAPS_SeaWaterSalinity_DBS-all_RLatLon0.03_PT014H.nc 2026-05-04 18:14 107M
20260504T12Z_MSC_CAPS_SeaWaterTemp_DBS-0.5m_RLatLon0.03_PT014H.nc 2026-05-04 18:14 15M
20260504T12Z_MSC_CAPS_SeaWaterTemp_DBS-all_RLatLon0.03_PT014H.nc 2026-05-04 18:14 88M
20260504T12Z_MSC_CAPS_SeaWaterVelocityX_DBS-0.5m_RLatLon0.03_PT014H.nc 2026-05-04 18:14 17M
20260504T12Z_MSC_CAPS_SeaWaterVelocityX_DBS-all_RLatLon0.03_PT014H.nc 2026-05-04 18:14 208M
20260504T12Z_MSC_CAPS_SeaWaterVelocityY_DBS-0.5m_RLatLon0.03_PT014H.nc 2026-05-04 18:14 18M
20260504T12Z_MSC_CAPS_SeaWaterVelocityY_DBS-all_RLatLon0.03_PT014H.nc 2026-05-04 18:14 212M
20260504T12Z_MSC_CAPS_SensibleHeatNetFlux_Sfc_RLatLon0.03_PT014H.grib2 2026-05-04 18:14 2.1M
20260504T12Z_MSC_CAPS_ShowalterIndex_IsbL-0500_RLatLon0.03_PT014H.grib2 2026-05-04 18:14 3.8M
20260504T12Z_MSC_CAPS_Snow-Accum_Sfc_RLatLon0.03_PT014H.grib2 2026-05-04 18:14 2.7M
20260504T12Z_MSC_CAPS_SnowDensity_Sfc_RLatLon0.03_PT014H.grib2 2026-05-04 18:14 1.2M
20260504T12Z_MSC_CAPS_SnowDepthWaterEquivalent_Sfc_RLatLon0.03_PT014H.grib2 2026-05-04 18:14 660K
20260504T12Z_MSC_CAPS_SnowDepth_Sfc_RLatLon0.03_PT014H.grib2 2026-05-04 18:14 1.1M
20260504T12Z_MSC_CAPS_SoilTemp_DBS-0to10cm_RLatLon0.03_PT014H.grib2 2026-05-04 18:14 1.5M
20260504T12Z_MSC_CAPS_SoilTemp_Sfc_RLatLon0.03_PT014H.grib2 2026-05-04 18:14 1.8M
20260504T12Z_MSC_CAPS_SoilVolumetricIceContent_Sfc_RLatLon0.03_PT014H.grib2 2026-05-04 18:14 1.4M
20260504T12Z_MSC_CAPS_SoilVolumetricWaterContent_DBS-0to10cm_RLatLon0.03_PT014H.grib2 2026-05-04 18:14 1.3M
20260504T12Z_MSC_CAPS_SoilVolumetricWaterContent_DBS-0to1cm_RLatLon0.03_PT014H.grib2 2026-05-04 18:14 1.7M
20260504T12Z_MSC_CAPS_SpecificHumidity_AGL-120m_RLatLon0.03_PT014H.grib2 2026-05-04 18:14 1.4M
20260504T12Z_MSC_CAPS_SpecificHumidity_AGL-2m_RLatLon0.03_PT014H.grib2 2026-05-04 18:14 1.7M
20260504T12Z_MSC_CAPS_SpecificHumidity_AGL-40m_RLatLon0.03_PT014H.grib2 2026-05-04 18:14 1.5M
20260504T12Z_MSC_CAPS_SpecificHumidity_AGL-80m_RLatLon0.03_PT014H.grib2 2026-05-04 18:14 1.4M
20260504T12Z_MSC_CAPS_SpecificHumidity_IsbL-0050_RLatLon0.03_PT014H.grib2 2026-05-04 18:14 892K
20260504T12Z_MSC_CAPS_SpecificHumidity_IsbL-0100_RLatLon0.03_PT014H.grib2 2026-05-04 18:14 1.1M
20260504T12Z_MSC_CAPS_SpecificHumidity_IsbL-0150_RLatLon0.03_PT014H.grib2 2026-05-04 18:14 769K
20260504T12Z_MSC_CAPS_SpecificHumidity_IsbL-0175_RLatLon0.03_PT014H.grib2 2026-05-04 18:14 1.0M
20260504T12Z_MSC_CAPS_SpecificHumidity_IsbL-0200_RLatLon0.03_PT014H.grib2 2026-05-04 18:14 870K
20260504T12Z_MSC_CAPS_SpecificHumidity_IsbL-0225_RLatLon0.03_PT014H.grib2 2026-05-04 18:14 1.1M
20260504T12Z_MSC_CAPS_SpecificHumidity_IsbL-0250_RLatLon0.03_PT014H.grib2 2026-05-04 18:14 1.1M
20260504T12Z_MSC_CAPS_SpecificHumidity_IsbL-0275_RLatLon0.03_PT014H.grib2 2026-05-04 18:14 1.1M
20260504T12Z_MSC_CAPS_SpecificHumidity_IsbL-0300_RLatLon0.03_PT014H.grib2 2026-05-04 18:14 1.0M
20260504T12Z_MSC_CAPS_SpecificHumidity_IsbL-0350_RLatLon0.03_PT014H.grib2 2026-05-04 18:14 972K
20260504T12Z_MSC_CAPS_SpecificHumidity_IsbL-0400_RLatLon0.03_PT014H.grib2 2026-05-04 18:14 970K
20260504T12Z_MSC_CAPS_SpecificHumidity_IsbL-0450_RLatLon0.03_PT014H.grib2 2026-05-04 18:14 1.1M
20260504T12Z_MSC_CAPS_SpecificHumidity_IsbL-0500_RLatLon0.03_PT014H.grib2 2026-05-04 18:14 1.1M
20260504T12Z_MSC_CAPS_SpecificHumidity_IsbL-0550_RLatLon0.03_PT014H.grib2 2026-05-04 18:14 1.2M
20260504T12Z_MSC_CAPS_SpecificHumidity_IsbL-0600_RLatLon0.03_PT014H.grib2 2026-05-04 18:14 1.4M
20260504T12Z_MSC_CAPS_SpecificHumidity_IsbL-0650_RLatLon0.03_PT014H.grib2 2026-05-04 18:14 1.5M
20260504T12Z_MSC_CAPS_SpecificHumidity_IsbL-0700_RLatLon0.03_PT014H.grib2 2026-05-04 18:14 1.3M
20260504T12Z_MSC_CAPS_SpecificHumidity_IsbL-0750_RLatLon0.03_PT014H.grib2 2026-05-04 18:14 1.4M
20260504T12Z_MSC_CAPS_SpecificHumidity_IsbL-0800_RLatLon0.03_PT014H.grib2 2026-05-04 18:14 1.6M
20260504T12Z_MSC_CAPS_SpecificHumidity_IsbL-0850_RLatLon0.03_PT014H.grib2 2026-05-04 18:14 1.7M
20260504T12Z_MSC_CAPS_SpecificHumidity_IsbL-0875_RLatLon0.03_PT014H.grib2 2026-05-04 18:14 1.4M
20260504T12Z_MSC_CAPS_SpecificHumidity_IsbL-0900_RLatLon0.03_PT014H.grib2 2026-05-04 18:14 1.5M
20260504T12Z_MSC_CAPS_SpecificHumidity_IsbL-0925_RLatLon0.03_PT014H.grib2 2026-05-04 18:14 1.5M
20260504T12Z_MSC_CAPS_SpecificHumidity_IsbL-0950_RLatLon0.03_PT014H.grib2 2026-05-04 18:14 1.6M
20260504T12Z_MSC_CAPS_SpecificHumidity_IsbL-0970_RLatLon0.03_PT014H.grib2 2026-05-04 18:14 1.6M
20260504T12Z_MSC_CAPS_SpecificHumidity_IsbL-0985_RLatLon0.03_PT014H.grib2 2026-05-04 18:14 1.7M
20260504T12Z_MSC_CAPS_SpecificHumidity_IsbL-1000_RLatLon0.03_PT014H.grib2 2026-05-04 18:14 1.7M
20260504T12Z_MSC_CAPS_SpecificHumidity_IsbL-1015_RLatLon0.03_PT014H.grib2 2026-05-04 18:14 1.7M
20260504T12Z_MSC_CAPS_SpecificHumidity_Sfc_RLatLon0.03_PT014H.grib2 2026-05-04 18:14 2.1M
20260504T12Z_MSC_CAPS_StormRelativeHelicity_Sfc_RLatLon0.03_PT014H.grib2 2026-05-04 18:14 3.3M
20260504T12Z_MSC_CAPS_Thickness_IsbL-1000to0500_RLatLon0.03_PT014H.grib2 2026-05-04 18:14 467K
20260504T12Z_MSC_CAPS_TotalCloudCover_Sfc_RLatLon0.03_PT014H.grib2 2026-05-04 18:14 3.3M
20260504T12Z_MSC_CAPS_TurboclineDepth_Sfc_RLatLon0.03_PT014H.nc 2026-05-04 18:14 16M
20260504T12Z_MSC_CAPS_UpwardLongwaveRadiationFlux_NTAtm_RLatLon0.03_PT014H.grib2 2026-05-04 18:14 2.9M
20260504T12Z_MSC_CAPS_UpwardShortwaveRadiationFlux_NTAtm_RLatLon0.03_PT014H.grib2 2026-05-04 18:14 1.9M
20260504T12Z_MSC_CAPS_VerticalVelocity_IsbL-0250_RLatLon0.03_PT014H.grib2 2026-05-04 18:14 1.2M
20260504T12Z_MSC_CAPS_VerticalVelocity_IsbL-0500_RLatLon0.03_PT014H.grib2 2026-05-04 18:14 1.2M
20260504T12Z_MSC_CAPS_VerticalVelocity_IsbL-0700_RLatLon0.03_PT014H.grib2 2026-05-04 18:14 962K
20260504T12Z_MSC_CAPS_VerticalVelocity_IsbL-0850_RLatLon0.03_PT014H.grib2 2026-05-04 18:14 1.5M
20260504T12Z_MSC_CAPS_VerticalVelocity_IsbL-1000_RLatLon0.03_PT014H.grib2 2026-05-04 18:14 1.4M
20260504T12Z_MSC_CAPS_WindDir_AGL-10m_RLatLon0.03_PT014H.grib2 2026-05-04 18:14 2.4M
20260504T12Z_MSC_CAPS_WindDir_AGL-120m_RLatLon0.03_PT014H.grib2 2026-05-04 18:14 1.2M
20260504T12Z_MSC_CAPS_WindDir_AGL-40m_RLatLon0.03_PT014H.grib2 2026-05-04 18:14 1.3M
20260504T12Z_MSC_CAPS_WindDir_AGL-80m_RLatLon0.03_PT014H.grib2 2026-05-04 18:14 1.3M
20260504T12Z_MSC_CAPS_WindDir_IsbL-0050_RLatLon0.03_PT014H.grib2 2026-05-04 18:14 1.0M
20260504T12Z_MSC_CAPS_WindDir_IsbL-0100_RLatLon0.03_PT014H.grib2 2026-05-04 18:14 1.0M
20260504T12Z_MSC_CAPS_WindDir_IsbL-0150_RLatLon0.03_PT014H.grib2 2026-05-04 18:14 1.0M
20260504T12Z_MSC_CAPS_WindDir_IsbL-0175_RLatLon0.03_PT014H.grib2 2026-05-04 18:14 1.1M
20260504T12Z_MSC_CAPS_WindDir_IsbL-0200_RLatLon0.03_PT014H.grib2 2026-05-04 18:14 1.1M
20260504T12Z_MSC_CAPS_WindDir_IsbL-0225_RLatLon0.03_PT014H.grib2 2026-05-04 18:14 1.1M
20260504T12Z_MSC_CAPS_WindDir_IsbL-0250_RLatLon0.03_PT014H.grib2 2026-05-04 18:14 1.1M
20260504T12Z_MSC_CAPS_WindDir_IsbL-0275_RLatLon0.03_PT014H.grib2 2026-05-04 18:14 1.1M
20260504T12Z_MSC_CAPS_WindDir_IsbL-0300_RLatLon0.03_PT014H.grib2 2026-05-04 18:14 1.1M
20260504T12Z_MSC_CAPS_WindDir_IsbL-0350_RLatLon0.03_PT014H.grib2 2026-05-04 18:14 1.1M
20260504T12Z_MSC_CAPS_WindDir_IsbL-0400_RLatLon0.03_PT014H.grib2 2026-05-04 18:14 1.1M
20260504T12Z_MSC_CAPS_WindDir_IsbL-0450_RLatLon0.03_PT014H.grib2 2026-05-04 18:14 1.2M
20260504T12Z_MSC_CAPS_WindDir_IsbL-0500_RLatLon0.03_PT014H.grib2 2026-05-04 18:14 1.2M
20260504T12Z_MSC_CAPS_WindDir_IsbL-0550_RLatLon0.03_PT014H.grib2 2026-05-04 18:14 1.3M
20260504T12Z_MSC_CAPS_WindDir_IsbL-0600_RLatLon0.03_PT014H.grib2 2026-05-04 18:14 1.3M
20260504T12Z_MSC_CAPS_WindDir_IsbL-0650_RLatLon0.03_PT014H.grib2 2026-05-04 18:14 1.3M
20260504T12Z_MSC_CAPS_WindDir_IsbL-0700_RLatLon0.03_PT014H.grib2 2026-05-04 18:14 1.4M
20260504T12Z_MSC_CAPS_WindDir_IsbL-0750_RLatLon0.03_PT014H.grib2 2026-05-04 18:14 1.5M
20260504T12Z_MSC_CAPS_WindDir_IsbL-0800_RLatLon0.03_PT014H.grib2 2026-05-04 18:14 1.6M
20260504T12Z_MSC_CAPS_WindDir_IsbL-0850_RLatLon0.03_PT014H.grib2 2026-05-04 18:14 1.8M
20260504T12Z_MSC_CAPS_WindDir_IsbL-0875_RLatLon0.03_PT014H.grib2 2026-05-04 18:14 1.8M
20260504T12Z_MSC_CAPS_WindDir_IsbL-0900_RLatLon0.03_PT014H.grib2 2026-05-04 18:14 1.9M
20260504T12Z_MSC_CAPS_WindDir_IsbL-0925_RLatLon0.03_PT014H.grib2 2026-05-04 18:14 1.9M
20260504T12Z_MSC_CAPS_WindDir_IsbL-0950_RLatLon0.03_PT014H.grib2 2026-05-04 18:14 2.0M
20260504T12Z_MSC_CAPS_WindDir_IsbL-0970_RLatLon0.03_PT014H.grib2 2026-05-04 18:14 2.1M
20260504T12Z_MSC_CAPS_WindDir_IsbL-0985_RLatLon0.03_PT014H.grib2 2026-05-04 18:14 2.2M
20260504T12Z_MSC_CAPS_WindDir_IsbL-1000_RLatLon0.03_PT014H.grib2 2026-05-04 18:14 2.3M
20260504T12Z_MSC_CAPS_WindDir_IsbL-1015_RLatLon0.03_PT014H.grib2 2026-05-04 18:14 2.3M
20260504T12Z_MSC_CAPS_WindGust-Max_AGL-10m_RLatLon0.03_PT014H.grib2 2026-05-04 18:14 2.6M
20260504T12Z_MSC_CAPS_WindGust-Min_AGL-10m_RLatLon0.03_PT014H.grib2 2026-05-04 18:14 2.4M
20260504T12Z_MSC_CAPS_WindGust_AGL-10m_RLatLon0.03_PT014H.grib2 2026-05-04 18:14 2.5M
20260504T12Z_MSC_CAPS_WindSpeed_AGL-10m_RLatLon0.03_PT014H.grib2 2026-05-04 18:14 2.1M
20260504T12Z_MSC_CAPS_WindSpeed_AGL-120m_RLatLon0.03_PT014H.grib2 2026-05-04 18:14 1.1M
20260504T12Z_MSC_CAPS_WindSpeed_AGL-40m_RLatLon0.03_PT014H.grib2 2026-05-04 18:14 1.5M
20260504T12Z_MSC_CAPS_WindSpeed_AGL-80m_RLatLon0.03_PT014H.grib2 2026-05-04 18:14 1.1M
20260504T12Z_MSC_CAPS_WindSpeed_IsbL-0050_RLatLon0.03_PT014H.grib2 2026-05-04 18:14 844K
20260504T12Z_MSC_CAPS_WindSpeed_IsbL-0100_RLatLon0.03_PT014H.grib2 2026-05-04 18:14 1.3M
20260504T12Z_MSC_CAPS_WindSpeed_IsbL-0150_RLatLon0.03_PT014H.grib2 2026-05-04 18:14 1.1M
20260504T12Z_MSC_CAPS_WindSpeed_IsbL-0175_RLatLon0.03_PT014H.grib2 2026-05-04 18:14 1.1M
20260504T12Z_MSC_CAPS_WindSpeed_IsbL-0200_RLatLon0.03_PT014H.grib2 2026-05-04 18:14 943K
20260504T12Z_MSC_CAPS_WindSpeed_IsbL-0225_RLatLon0.03_PT014H.grib2 2026-05-04 18:14 959K
20260504T12Z_MSC_CAPS_WindSpeed_IsbL-0250_RLatLon0.03_PT014H.grib2 2026-05-04 18:14 1.0M
20260504T12Z_MSC_CAPS_WindSpeed_IsbL-0275_RLatLon0.03_PT014H.grib2 2026-05-04 18:14 1.0M
20260504T12Z_MSC_CAPS_WindSpeed_IsbL-0300_RLatLon0.03_PT014H.grib2 2026-05-04 18:14 1.0M
20260504T12Z_MSC_CAPS_WindSpeed_IsbL-0350_RLatLon0.03_PT014H.grib2 2026-05-04 18:14 1.0M
20260504T12Z_MSC_CAPS_WindSpeed_IsbL-0400_RLatLon0.03_PT014H.grib2 2026-05-04 18:14 1.0M
20260504T12Z_MSC_CAPS_WindSpeed_IsbL-0450_RLatLon0.03_PT014H.grib2 2026-05-04 18:14 1.0M
20260504T12Z_MSC_CAPS_WindSpeed_IsbL-0500_RLatLon0.03_PT014H.grib2 2026-05-04 18:14 1.4M
20260504T12Z_MSC_CAPS_WindSpeed_IsbL-0550_RLatLon0.03_PT014H.grib2 2026-05-04 18:14 1.6M
20260504T12Z_MSC_CAPS_WindSpeed_IsbL-0600_RLatLon0.03_PT014H.grib2 2026-05-04 18:14 1.5M
20260504T12Z_MSC_CAPS_WindSpeed_IsbL-0650_RLatLon0.03_PT014H.grib2 2026-05-04 18:14 1.5M
20260504T12Z_MSC_CAPS_WindSpeed_IsbL-0700_RLatLon0.03_PT014H.grib2 2026-05-04 18:14 1.5M
20260504T12Z_MSC_CAPS_WindSpeed_IsbL-0750_RLatLon0.03_PT014H.grib2 2026-05-04 18:14 1.6M
20260504T12Z_MSC_CAPS_WindSpeed_IsbL-0800_RLatLon0.03_PT014H.grib2 2026-05-04 18:14 1.7M
20260504T12Z_MSC_CAPS_WindSpeed_IsbL-0850_RLatLon0.03_PT014H.grib2 2026-05-04 18:14 1.7M
20260504T12Z_MSC_CAPS_WindSpeed_IsbL-0875_RLatLon0.03_PT014H.grib2 2026-05-04 18:14 1.8M
20260504T12Z_MSC_CAPS_WindSpeed_IsbL-0900_RLatLon0.03_PT014H.grib2 2026-05-04 18:14 1.8M
20260504T12Z_MSC_CAPS_WindSpeed_IsbL-0925_RLatLon0.03_PT014H.grib2 2026-05-04 18:14 1.8M
20260504T12Z_MSC_CAPS_WindSpeed_IsbL-0950_RLatLon0.03_PT014H.grib2 2026-05-04 18:14 1.9M
20260504T12Z_MSC_CAPS_WindSpeed_IsbL-0970_RLatLon0.03_PT014H.grib2 2026-05-04 18:14 2.0M
20260504T12Z_MSC_CAPS_WindSpeed_IsbL-0985_RLatLon0.03_PT014H.grib2 2026-05-04 18:14 2.0M
20260504T12Z_MSC_CAPS_WindSpeed_IsbL-1000_RLatLon0.03_PT014H.grib2 2026-05-04 18:14 2.1M
20260504T12Z_MSC_CAPS_WindSpeed_IsbL-1015_RLatLon0.03_PT014H.grib2 2026-05-04 18:14 2.1M
20260504T12Z_MSC_CAPS_WindU_AGL-10m_RLatLon0.03_PT014H.grib2 2026-05-04 18:14 2.0M
20260504T12Z_MSC_CAPS_WindU_AGL-120m_RLatLon0.03_PT014H.grib2 2026-05-04 18:14 1.2M
20260504T12Z_MSC_CAPS_WindU_AGL-40m_RLatLon0.03_PT014H.grib2 2026-05-04 18:14 1.2M
20260504T12Z_MSC_CAPS_WindU_AGL-80m_RLatLon0.03_PT014H.grib2 2026-05-04 18:14 1.2M
20260504T12Z_MSC_CAPS_WindU_IsbL-0050_RLatLon0.03_PT014H.grib2 2026-05-04 18:14 764K
20260504T12Z_MSC_CAPS_WindU_IsbL-0100_RLatLon0.03_PT014H.grib2 2026-05-04 18:14 810K
20260504T12Z_MSC_CAPS_WindU_IsbL-0150_RLatLon0.03_PT014H.grib2 2026-05-04 18:14 930K
20260504T12Z_MSC_CAPS_WindU_IsbL-0175_RLatLon0.03_PT014H.grib2 2026-05-04 18:14 731K
20260504T12Z_MSC_CAPS_WindU_IsbL-0200_RLatLon0.03_PT014H.grib2 2026-05-04 18:14 878K
20260504T12Z_MSC_CAPS_WindU_IsbL-0225_RLatLon0.03_PT014H.grib2 2026-05-04 18:14 897K
20260504T12Z_MSC_CAPS_WindU_IsbL-0250_RLatLon0.03_PT014H.grib2 2026-05-04 18:14 918K
20260504T12Z_MSC_CAPS_WindU_IsbL-0275_RLatLon0.03_PT014H.grib2 2026-05-04 18:14 712K
20260504T12Z_MSC_CAPS_WindU_IsbL-0300_RLatLon0.03_PT014H.grib2 2026-05-04 18:14 719K
20260504T12Z_MSC_CAPS_WindU_IsbL-0350_RLatLon0.03_PT014H.grib2 2026-05-04 18:14 732K
20260504T12Z_MSC_CAPS_WindU_IsbL-0400_RLatLon0.03_PT014H.grib2 2026-05-04 18:14 955K
20260504T12Z_MSC_CAPS_WindU_IsbL-0450_RLatLon0.03_PT014H.grib2 2026-05-04 18:14 1.0M
20260504T12Z_MSC_CAPS_WindU_IsbL-0500_RLatLon0.03_PT014H.grib2 2026-05-04 18:14 1.0M
20260504T12Z_MSC_CAPS_WindU_IsbL-0550_RLatLon0.03_PT014H.grib2 2026-05-04 18:14 1.0M
20260504T12Z_MSC_CAPS_WindU_IsbL-0600_RLatLon0.03_PT014H.grib2 2026-05-04 18:14 1.0M
20260504T12Z_MSC_CAPS_WindU_IsbL-0650_RLatLon0.03_PT014H.grib2 2026-05-04 18:14 1.0M
20260504T12Z_MSC_CAPS_WindU_IsbL-0700_RLatLon0.03_PT014H.grib2 2026-05-04 18:14 1.0M
20260504T12Z_MSC_CAPS_WindU_IsbL-0750_RLatLon0.03_PT014H.grib2 2026-05-04 18:14 1.1M
20260504T12Z_MSC_CAPS_WindU_IsbL-0800_RLatLon0.03_PT014H.grib2 2026-05-04 18:14 1.1M
20260504T12Z_MSC_CAPS_WindU_IsbL-0850_RLatLon0.03_PT014H.grib2 2026-05-04 18:14 1.2M
20260504T12Z_MSC_CAPS_WindU_IsbL-0875_RLatLon0.03_PT014H.grib2 2026-05-04 18:14 1.2M
20260504T12Z_MSC_CAPS_WindU_IsbL-0900_RLatLon0.03_PT014H.grib2 2026-05-04 18:14 1.3M
20260504T12Z_MSC_CAPS_WindU_IsbL-0925_RLatLon0.03_PT014H.grib2 2026-05-04 18:14 1.3M
20260504T12Z_MSC_CAPS_WindU_IsbL-0950_RLatLon0.03_PT014H.grib2 2026-05-04 18:14 1.4M
20260504T12Z_MSC_CAPS_WindU_IsbL-0970_RLatLon0.03_PT014H.grib2 2026-05-04 18:14 1.4M
20260504T12Z_MSC_CAPS_WindU_IsbL-0985_RLatLon0.03_PT014H.grib2 2026-05-04 18:14 1.8M
20260504T12Z_MSC_CAPS_WindU_IsbL-1000_RLatLon0.03_PT014H.grib2 2026-05-04 18:14 1.8M
20260504T12Z_MSC_CAPS_WindU_IsbL-1015_RLatLon0.03_PT014H.grib2 2026-05-04 18:14 2.0M
20260504T12Z_MSC_CAPS_WindV_AGL-10m_RLatLon0.03_PT014H.grib2 2026-05-04 18:14 2.0M
20260504T12Z_MSC_CAPS_WindV_AGL-120m_RLatLon0.03_PT014H.grib2 2026-05-04 18:14 1.2M
20260504T12Z_MSC_CAPS_WindV_AGL-40m_RLatLon0.03_PT014H.grib2 2026-05-04 18:14 1.2M
20260504T12Z_MSC_CAPS_WindV_AGL-80m_RLatLon0.03_PT014H.grib2 2026-05-04 18:14 1.2M
20260504T12Z_MSC_CAPS_WindV_IsbL-0050_RLatLon0.03_PT014H.grib2 2026-05-04 18:14 768K
20260504T12Z_MSC_CAPS_WindV_IsbL-0100_RLatLon0.03_PT014H.grib2 2026-05-04 18:14 1.0M
20260504T12Z_MSC_CAPS_WindV_IsbL-0150_RLatLon0.03_PT014H.grib2 2026-05-04 18:14 717K
20260504T12Z_MSC_CAPS_WindV_IsbL-0175_RLatLon0.03_PT014H.grib2 2026-05-04 18:14 851K
20260504T12Z_MSC_CAPS_WindV_IsbL-0200_RLatLon0.03_PT014H.grib2 2026-05-04 18:14 871K
20260504T12Z_MSC_CAPS_WindV_IsbL-0225_RLatLon0.03_PT014H.grib2 2026-05-04 18:14 679K
20260504T12Z_MSC_CAPS_WindV_IsbL-0250_RLatLon0.03_PT014H.grib2 2026-05-04 18:14 701K
20260504T12Z_MSC_CAPS_WindV_IsbL-0275_RLatLon0.03_PT014H.grib2 2026-05-04 18:14 712K
20260504T12Z_MSC_CAPS_WindV_IsbL-0300_RLatLon0.03_PT014H.grib2 2026-05-04 18:14 718K
20260504T12Z_MSC_CAPS_WindV_IsbL-0350_RLatLon0.03_PT014H.grib2 2026-05-04 18:14 731K
20260504T12Z_MSC_CAPS_WindV_IsbL-0400_RLatLon0.03_PT014H.grib2 2026-05-04 18:14 952K
20260504T12Z_MSC_CAPS_WindV_IsbL-0450_RLatLon0.03_PT014H.grib2 2026-05-04 18:14 972K
20260504T12Z_MSC_CAPS_WindV_IsbL-0500_RLatLon0.03_PT014H.grib2 2026-05-04 18:14 1.0M
20260504T12Z_MSC_CAPS_WindV_IsbL-0550_RLatLon0.03_PT014H.grib2 2026-05-04 18:14 1.0M
20260504T12Z_MSC_CAPS_WindV_IsbL-0600_RLatLon0.03_PT014H.grib2 2026-05-04 18:14 948K
20260504T12Z_MSC_CAPS_WindV_IsbL-0650_RLatLon0.03_PT014H.grib2 2026-05-04 18:14 1.2M
20260504T12Z_MSC_CAPS_WindV_IsbL-0700_RLatLon0.03_PT014H.grib2 2026-05-04 18:14 1.3M
20260504T12Z_MSC_CAPS_WindV_IsbL-0750_RLatLon0.03_PT014H.grib2 2026-05-04 18:14 1.1M
20260504T12Z_MSC_CAPS_WindV_IsbL-0800_RLatLon0.03_PT014H.grib2 2026-05-04 18:14 1.4M
20260504T12Z_MSC_CAPS_WindV_IsbL-0850_RLatLon0.03_PT014H.grib2 2026-05-04 18:14 1.2M
20260504T12Z_MSC_CAPS_WindV_IsbL-0875_RLatLon0.03_PT014H.grib2 2026-05-04 18:14 1.2M
20260504T12Z_MSC_CAPS_WindV_IsbL-0900_RLatLon0.03_PT014H.grib2 2026-05-04 18:14 1.3M
20260504T12Z_MSC_CAPS_WindV_IsbL-0925_RLatLon0.03_PT014H.grib2 2026-05-04 18:14 1.3M
20260504T12Z_MSC_CAPS_WindV_IsbL-0950_RLatLon0.03_PT014H.grib2 2026-05-04 18:14 1.4M
20260504T12Z_MSC_CAPS_WindV_IsbL-0970_RLatLon0.03_PT014H.grib2 2026-05-04 18:14 1.4M
20260504T12Z_MSC_CAPS_WindV_IsbL-0985_RLatLon0.03_PT014H.grib2 2026-05-04 18:14 1.4M
20260504T12Z_MSC_CAPS_WindV_IsbL-1000_RLatLon0.03_PT014H.grib2 2026-05-04 18:14 1.8M
20260504T12Z_MSC_CAPS_WindV_IsbL-1015_RLatLon0.03_PT014H.grib2 2026-05-04 18:14 1.9M